Dades meteomassalio
Diari Summary for Abril 24, 2017 Units:  Metric    English   Both
« Previous Day
Next Day »
Diari Semanal Mensual Anual Personalitzat
  Maxima: Minima: Mijana:
Temperatura: 27.3 °C 3.9 °C 16.2 °C
Rosada: 7.0 °C -1.8 °C 2.4 °C
Humitat: 70 % 22 % 44 %
Velocitat del vent: 31.5 km/h 0.0 km/h 7.4 km/h
Racha vent: 31.5 km/h - -
Vent:- - East
Pressio: 1017.2 hPa 1011.4 hPa -
Pluja: 0.0 mm    
Historical Graphs
 
 
Tabular Data for Abril 24, 2017
Time Temperature Dew Point Pressure Wind Wind Speed Wind Gust Humidity Rainfall Rate (Hourly) solar Conditions
00:01 10.8 °C 2.6 °C 1017.2 hPa Calm     57 % 0.0 mm 0.0 W/m2 CLR
00:06 10.6 °C 2.4 °C 1017.2 hPa Calm     57 % 0.0 mm 0.0 W/m2 CLR
00:11 10.4 °C 2.5 °C 1017.2 hPa Calm     58 % 0.0 mm 0.0 W/m2 CLR
00:16 10.1 °C 2.4 °C 1017.2 hPa Calm     59 % 0.0 mm 0.0 W/m2 CLR
00:21 9.9 °C 2.2 °C 1017.2 hPa Calm     59 % 0.0 mm 0.0 W/m2 CLR
00:26 9.7 °C 2.3 °C 1017.2 hPa Calm     60 % 0.0 mm 0.0 W/m2 CLR
00:31 9.6 °C 2.2 °C 1017.2 hPa Calm     60 % 0.0 mm 0.0 W/m2 CLR
00:36 9.6 °C 2.2 °C 1017.2 hPa Calm     60 % 0.0 mm 0.0 W/m2 CLR
00:41 9.4 °C 2.0 °C 1017.2 hPa Calm     60 % 0.0 mm 0.0 W/m2 CLR
00:46 9.2 °C 2.1 °C 1017.2 hPa Calm     61 % 0.0 mm 0.0 W/m2 CLR
00:51 9.0 °C 1.9 °C 1017.2 hPa Calm     61 % 0.0 mm 0.0 W/m2 CLR
00:56 8.9 °C 2.0 °C 1017.2 hPa Calm     62 % 0.0 mm 0.0 W/m2 CLR
01:01 8.8 °C 1.9 °C 1017.2 hPa Calm     62 % 0.0 mm 0.0 W/m2 CLR
01:06 8.7 °C 1.8 °C 1017.2 hPa Calm     62 % 0.0 mm 0.0 W/m2 CLR
01:11 8.6 °C 1.9 °C 1017.2 hPa Calm     63 % 0.0 mm 0.0 W/m2 CLR
01:16 8.5 °C 1.8 °C 1017.2 hPa Calm     63 % 0.0 mm 0.0 W/m2 CLR
01:21 8.6 °C 1.7 °C 1017.2 hPa Calm     62 % 0.0 mm 0.0 W/m2 CLR
01:26 8.4 °C 1.6 °C 1017.2 hPa Calm     62 % 0.0 mm 0.0 W/m2 CLR
01:31 8.4 °C 1.5 °C 1017.2 hPa Calm     62 % 0.0 mm 0.0 W/m2 CLR
01:36 8.4 °C 1.5 °C 1017.2 hPa Calm     62 % 0.0 mm 0.0 W/m2 CLR
01:41 8.3 °C 1.7 °C 1017.2 hPa Calm     63 % 0.0 mm 0.0 W/m2 CLR
01:46 8.2 °C 1.6 °C 1017.2 hPa Calm     63 % 0.0 mm 0.0 W/m2 CLR
01:51 8.1 °C 1.4 °C 1017.2 hPa Calm     63 % 0.0 mm 0.0 W/m2 CLR
01:56 7.9 °C 1.5 °C 1017.2 hPa Calm     64 % 0.0 mm 0.0 W/m2 CLR
02:01 7.8 °C 1.4 °C 1017.2 hPa Calm     64 % 0.0 mm 0.0 W/m2 CLR
02:06 7.7 °C 1.3 °C 1017.2 hPa Calm     64 % 0.0 mm 0.0 W/m2 CLR
02:11 7.6 °C 1.4 °C 1017.2 hPa Calm     65 % 0.0 mm 0.0 W/m2 CLR
02:16 7.4 °C 1.3 °C 1017.2 hPa Calm     65 % 0.0 mm 0.0 W/m2 CLR
02:21 7.3 °C 1.4 °C 1017.2 hPa Calm     66 % 0.0 mm 0.0 W/m2 CLR
02:26 7.2 °C 1.3 °C 1017.2 hPa Calm     66 % 0.0 mm 0.0 W/m2 CLR
02:31 7.1 °C 0.9 °C 1017.2 hPa Calm     65 % 0.0 mm 0.0 W/m2 CLR
02:36 7.1 °C 1.2 °C 1016.8 hPa Calm     66 % 0.0 mm 0.0 W/m2 CLR
02:41 6.9 °C 1.0 °C 1016.8 hPa Calm     66 % 0.0 mm 0.0 W/m2 CLR
02:46 6.9 °C 0.9 °C 1016.8 hPa SW 7.4 km/h 7.4 km/h 66 % 0.0 mm 0.0 W/m2 CLR
02:51 6.9 °C 0.8 °C 1016.8 hPa Calm     65 % 0.0 mm 0.0 W/m2 CLR
02:57 6.9 °C 0.8 °C 1016.8 hPa Calm     65 % 0.0 mm 0.0 W/m2 CLR
03:02 6.9 °C 0.8 °C 1016.8 hPa Calm     65 % 0.0 mm 0.0 W/m2 CLR
03:07 6.8 °C 0.9 °C 1016.8 hPa Calm     66 % 0.0 mm 0.0 W/m2 CLR
03:12 6.7 °C 0.8 °C 1016.8 hPa Calm     66 % 0.0 mm 0.0 W/m2 CLR
03:17 6.7 °C 0.8 °C 1016.8 hPa Calm     66 % 0.0 mm 0.0 W/m2 CLR
03:22 6.6 °C 0.7 °C 1016.8 hPa Calm     66 % 0.0 mm 0.0 W/m2 CLR
03:27 6.4 °C 0.8 °C 1016.8 hPa Calm     67 % 0.0 mm 0.0 W/m2 CLR
03:32 6.3 °C 0.8 °C 1016.5 hPa Calm     68 % 0.0 mm 0.0 W/m2 CLR
03:37 6.2 °C 0.7 °C 1016.5 hPa Calm     68 % 0.0 mm 0.0 W/m2 CLR
03:42 6.2 °C 0.7 °C 1016.5 hPa Calm     68 % 0.0 mm 0.0 W/m2 CLR
03:47 6.1 °C 0.7 °C 1016.5 hPa Calm     68 % 0.0 mm 0.0 W/m2 CLR
03:52 6.1 °C 0.6 °C 1016.5 hPa Calm     68 % 0.0 mm 0.0 W/m2 CLR
03:57 6.1 °C 0.4 °C 1016.5 hPa Calm     67 % 0.0 mm 0.0 W/m2 CLR
04:02 6.1 °C 0.4 °C 1016.5 hPa Calm     67 % 0.0 mm 0.0 W/m2 CLR
04:07 6.1 °C 0.7 °C 1016.5 hPa Calm     68 % 0.0 mm 0.0 W/m2 CLR
04:12 6.0 °C 0.6 °C 1016.5 hPa Calm     68 % 0.0 mm 0.0 W/m2 CLR
04:17 5.9 °C 0.5 °C 1016.5 hPa Calm     68 % 0.0 mm 0.0 W/m2 CLR
04:22 5.8 °C 0.4 °C 1016.5 hPa Calm     68 % 0.0 mm 0.0 W/m2 CLR
04:27 5.8 °C 0.3 °C 1016.5 hPa Calm     68 % 0.0 mm 0.0 W/m2 CLR
04:32 5.8 °C 0.3 °C 1016.5 hPa Calm     68 % 0.0 mm 0.0 W/m2 CLR
04:37 5.8 °C 0.3 °C 1016.5 hPa Calm     68 % 0.0 mm 0.0 W/m2 CLR
04:42 5.8 °C 0.5 °C 1016.5 hPa Calm     69 % 0.0 mm 0.0 W/m2 CLR
04:47 5.9 °C 0.4 °C 1016.5 hPa Calm     68 % 0.0 mm 0.0 W/m2 CLR
04:52 6.1 °C 0.6 °C 1016.5 hPa Calm     68 % 0.0 mm 0.0 W/m2 CLR
04:57 6.0 °C 0.6 °C 1016.5 hPa Calm     68 % 0.0 mm 0.0 W/m2 CLR
05:02 5.8 °C 0.4 °C 1016.5 hPa Calm     68 % 0.0 mm 0.0 W/m2 CLR
05:07 5.8 °C 0.3 °C 1016.5 hPa Calm     68 % 0.0 mm 0.0 W/m2 CLR
05:12 5.7 °C 0.2 °C 1016.5 hPa Calm     68 % 0.0 mm 0.0 W/m2 CLR
05:17 5.5 °C 0.1 °C 1016.5 hPa Calm     68 % 0.0 mm 0.0 W/m2 CLR
05:22 5.2 °C -0.2 °C 1016.5 hPa Calm     68 % 0.0 mm 0.0 W/m2 CLR
05:27 5.0 °C -0.2 °C 1016.5 hPa Calm     69 % 0.0 mm 0.0 W/m2 CLR
05:32 5.0 °C 0.0 °C 1016.5 hPa Calm     70 % 0.0 mm 0.0 W/m2 CLR
05:37 4.9 °C -0.1 °C 1016.5 hPa Calm     70 % 0.0 mm 0.0 W/m2 CLR
05:42 4.8 °C -0.2 °C 1016.5 hPa Calm     70 % 0.0 mm 0.0 W/m2 CLR
05:47 4.7 °C -0.3 °C 1016.5 hPa Calm     70 % 0.0 mm 0.0 W/m2 CLR
05:52 4.7 °C -0.3 °C 1016.5 hPa Calm     70 % 0.0 mm 0.0 W/m2 CLR
05:57 4.7 °C -0.3 °C 1016.5 hPa Calm     70 % 0.0 mm 0.0 W/m2 CLR
06:02 4.6 °C -0.7 °C 1016.5 hPa Calm     69 % 0.0 mm 0.0 W/m2 CLR
06:07 4.4 °C -0.8 °C 1016.5 hPa Calm     69 % 0.0 mm 0.0 W/m2 CLR
06:12 4.4 °C -0.9 °C 1016.5 hPa Calm     68 % 0.0 mm 0.0 W/m2 CLR
06:17 4.4 °C -0.9 °C 1016.5 hPa Calm     68 % 0.0 mm 0.0 W/m2 CLR
06:22 4.5 °C -1.1 °C 1016.5 hPa Calm     67 % 0.0 mm 0.0 W/m2 CLR
06:27 4.6 °C -1.1 °C 1016.5 hPa Calm     67 % 0.0 mm 0.0 W/m2 CLR
06:32 4.4 °C -1.2 °C 1016.5 hPa Calm     67 % 0.0 mm 0.0 W/m2 CLR
06:37 4.2 °C -1.2 °C 1016.8 hPa Calm     68 % 0.0 mm 0.0 W/m2 CLR
06:42 4.1 °C -1.3 °C 1016.8 hPa Calm     68 % 0.0 mm 0.0 W/m2 CLR
06:47 4.1 °C -1.5 °C 1016.8 hPa Calm     67 % 0.0 mm 0.0 W/m2 CLR
06:52 4.1 °C -1.3 °C 1016.8 hPa Calm     68 % 0.0 mm 0.0 W/m2 CLR
06:57 4.1 °C -1.3 °C 1016.8 hPa Calm     68 % 0.0 mm 0.0 W/m2 CLR
07:02 4.0 °C -1.4 °C 1016.8 hPa Calm     68 % 0.0 mm 0.0 W/m2 OVC
07:07 3.9 °C -1.6 °C 1016.8 hPa SW 7.4 km/h 7.4 km/h 67 % 0.0 mm 5.0 W/m2 OVC
07:12 4.0 °C -1.8 °C 1016.8 hPa SW 5.6 km/h 5.6 km/h 66 % 0.0 mm 7.0 W/m2 BKN
07:17 4.2 °C -1.6 °C 1016.8 hPa Calm     66 % 0.0 mm 11.0 W/m2 BKN
07:22 4.2 °C -1.8 °C 1016.8 hPa Calm     65 % 0.0 mm 12.0 W/m2 BKN
07:27 4.3 °C -1.5 °C 1016.8 hPa Calm     66 % 0.0 mm 16.0 W/m2 BKN
07:32 4.3 °C -1.7 °C 1017.2 hPa Calm     65 % 0.0 mm 18.0 W/m2 BKN
07:37 4.3 °C -1.4 °C 1017.2 hPa Calm     66 % 0.0 mm 23.0 W/m2 BKN
07:42 4.5 °C -1.3 °C 1017.2 hPa Calm     66 % 0.0 mm 32.0 W/m2 BKN
07:47 4.7 °C -1.3 °C 1017.2 hPa Calm     65 % 0.0 mm 39.0 W/m2 BKN
07:52 4.8 °C -1.2 °C 1017.2 hPa Calm     65 % 0.0 mm 46.0 W/m2 SCT
07:57 5.0 °C -1.1 °C 1017.2 hPa Calm     65 % 0.0 mm 58.0 W/m2 SCT
08:02 5.2 °C -1.1 °C 1017.2 hPa Calm     64 % 0.0 mm 79.0 W/m2 FEW
08:07 5.6 °C -0.9 °C 1017.2 hPa Calm     63 % 0.0 mm 97.0 W/m2 FEW
08:12 5.9 °C -0.6 °C 1017.2 hPa Calm     63 % 0.0 mm 113.0 W/m2 CLR
08:17 6.3 °C -0.7 °C 1017.2 hPa Calm     61 % 0.0 mm 134.0 W/m2 CLR
08:22 6.5 °C -0.5 °C 1017.2 hPa Calm     61 % 0.0 mm 149.0 W/m2 CLR
08:27 6.9 °C -0.3 °C 1017.2 hPa Calm     60 % 0.0 mm 167.0 W/m2 CLR
08:32 7.4 °C -0.1 °C 1017.2 hPa Calm     59 % 0.0 mm 186.0 W/m2 CLR
08:37 8.0 °C 0.2 °C 1017.2 hPa Calm     58 % 0.0 mm 204.0 W/m2 CLR
08:42 8.6 °C 0.6 °C 1017.2 hPa Calm     57 % 0.0 mm 225.0 W/m2 CLR
08:47 9.2 °C 1.1 °C 1017.2 hPa Calm     57 % 0.0 mm 243.0 W/m2 CLR
08:52 9.8 °C 0.9 °C 1016.8 hPa Calm     54 % 0.0 mm 258.0 W/m2 CLR
08:57 10.3 °C 0.9 °C 1016.8 hPa Calm     52 % 0.0 mm 274.0 W/m2 CLR
09:02 10.9 °C 1.4 °C 1016.8 hPa Calm     52 % 0.0 mm 292.0 W/m2 CLR
09:07 11.4 °C 1.1 °C 1017.2 hPa Calm     49 % 0.0 mm 308.0 W/m2 CLR
09:12 11.8 °C 1.4 °C 1016.8 hPa Calm     49 % 0.0 mm 125.0 W/m2 CLR
09:17 12.2 °C 1.4 °C 1016.8 hPa Calm     48 % 0.0 mm 165.0 W/m2 CLR
09:22 12.4 °C 1.4 °C 1016.8 hPa Calm     47 % 0.0 mm 355.0 W/m2 CLR
09:27 12.8 °C 1.7 °C 1016.8 hPa Calm     47 % 0.0 mm 374.0 W/m2 CLR
09:32 13.2 °C 1.6 °C 1016.8 hPa Calm     45 % 0.0 mm 388.0 W/m2 CLR
09:37 13.7 °C 1.6 °C 1016.8 hPa Calm     44 % 0.0 mm 404.0 W/m2 CLR
09:42 14.1 °C 1.3 °C 1016.8 hPa Calm     42 % 0.0 mm 420.0 W/m2 CLR
09:47 14.6 °C 1.4 °C 1016.5 hPa Calm     41 % 0.0 mm 439.0 W/m2 CLR
09:52 14.9 °C 1.1 °C 1016.5 hPa Calm     39 % 0.0 mm 454.0 W/m2 CLR
09:57 15.4 °C 1.2 °C 1016.5 hPa Calm     38 % 0.0 mm 471.0 W/m2 CLR
10:02 15.9 °C 1.6 °C 1016.5 hPa Calm     38 % 0.0 mm 485.0 W/m2 CLR
10:08 16.4 °C 2.4 °C 1016.5 hPa Calm     39 % 0.0 mm 504.0 W/m2 CLR
10:13 17.1 °C 2.6 °C 1016.5 hPa Calm     38 % 0.0 mm 519.0 W/m2 CLR
10:14 17.2 °C 2.7 °C 1016.5 hPa Calm     38 % 0.0 mm 520.0 W/m2 CLR
10:19 17.5 °C 3.0 °C 1016.5 hPa Calm     38 % 0.0 mm 534.0 W/m2 CLR
10:24 17.7 °C 2.8 °C 1016.5 hPa Calm     37 % 0.0 mm 552.0 W/m2 CLR
10:29 18.0 °C 2.7 °C 1016.5 hPa Calm     36 % 0.0 mm 566.0 W/m2 CLR
10:34 18.4 °C 3.4 °C 1016.1 hPa Calm     37 % 0.0 mm 578.0 W/m2 CLR
10:39 18.5 °C 3.1 °C 1016.1 hPa NE 7.4 km/h 7.4 km/h 36 % 0.0 mm 592.0 W/m2 CLR
10:44 18.8 °C 3.4 °C 1016.1 hPa NNE 5.6 km/h   36 % 0.0 mm 610.0 W/m2 CLR
10:49 19.0 °C 3.2 °C 1016.1 hPa NE 5.6 km/h 5.6 km/h 35 % 0.0 mm 622.0 W/m2 CLR
10:54 19.1 °C 3.7 °C 1016.1 hPa NE 9.3 km/h 9.3 km/h 36 % 0.0 mm 638.0 W/m2 CLR
10:59 19.3 °C 3.9 °C 1016.1 hPa NE 7.4 km/h 7.4 km/h 36 % 0.0 mm 647.0 W/m2 CLR
11:04 19.3 °C 3.9 °C 1016.1 hPa NNE 5.6 km/h 5.6 km/h 36 % 0.0 mm 661.0 W/m2 CLR
11:09 19.4 °C 4.3 °C 1016.1 hPa NE 8.0 km/h 8.0 km/h 37 % 0.0 mm 675.0 W/m2 CLR
11:14 19.7 °C 5.0 °C 1016.1 hPa NE 5.6 km/h 5.6 km/h 38 % 0.0 mm 686.0 W/m2 CLR
11:19 20.1 °C 4.9 °C 1016.1 hPa ENE 11.1 km/h 11.1 km/h 37 % 0.0 mm 698.0 W/m2 CLR
11:24 20.3 °C 4.7 °C 1015.8 hPa ENE 11.1 km/h 11.1 km/h 36 % 0.0 mm 708.0 W/m2 CLR
11:29 20.4 °C 4.0 °C 1015.8 hPa NE 9.3 km/h 9.3 km/h 34 % 0.0 mm 722.0 W/m2 CLR
11:34 20.6 °C 4.1 °C 1015.8 hPa ENE 12.9 km/h 12.9 km/h 34 % 0.0 mm 733.0 W/m2 CLR
11:39 20.9 °C 4.0 °C 1015.8 hPa NE 9.3 km/h 9.3 km/h 33 % 0.0 mm 747.0 W/m2 CLR
11:44 21.1 °C 4.2 °C 1015.8 hPa NE 11.1 km/h 11.1 km/h 33 % 0.0 mm 758.0 W/m2 CLR
11:45 21.1 °C 4.2 °C 1015.8 hPa NE 11.1 km/h 11.1 km/h 33 % 0.0 mm 759.0 W/m2 CLR
11:50 21.2 °C 3.8 °C 1015.8 hPa NE 11.3 km/h 11.3 km/h 32 % 0.0 mm 768.0 W/m2 CLR
11:55 21.4 °C 4.0 °C 1015.8 hPa NE 7.4 km/h 7.4 km/h 32 % 0.0 mm 777.0 W/m2 CLR
12:00 21.8 °C 3.9 °C 1015.8 hPa NE 11.3 km/h 11.3 km/h 31 % 0.0 mm 788.0 W/m2 CLR
12:05 22.2 °C 4.7 °C 1015.5 hPa North 5.6 km/h 5.6 km/h 32 % 0.0 mm 800.0 W/m2 CLR
12:10 22.2 °C 4.7 °C 1015.5 hPa ENE 9.3 km/h 9.3 km/h 32 % 0.0 mm 810.0 W/m2 CLR
12:15 22.3 °C 3.8 °C 1015.5 hPa ENE 11.1 km/h 11.1 km/h 30 % 0.0 mm 819.0 W/m2 CLR
12:20 22.4 °C 5.4 °C 1015.5 hPa East 11.1 km/h 11.1 km/h 33 % 0.0 mm 826.0 W/m2 CLR
12:25 22.8 °C 5.2 °C 1015.5 hPa NE 8.0 km/h 8.0 km/h 32 % 0.0 mm 833.0 W/m2 CLR
12:30 22.8 °C 3.8 °C 1015.5 hPa ENE 18.5 km/h 18.5 km/h 29 % 0.0 mm 844.0 W/m2 CLR
12:35 22.8 °C 2.8 °C 1015.5 hPa ENE 11.1 km/h 11.1 km/h 27 % 0.0 mm 849.0 W/m2 CLR
12:40 22.9 °C 3.9 °C 1015.1 hPa NNE 7.4 km/h 7.4 km/h 29 % 0.0 mm 851.0 W/m2 CLR
12:45 23.3 °C 4.3 °C 1015.1 hPa ENE 12.9 km/h 12.9 km/h 29 % 0.0 mm 860.0 W/m2 CLR
12:50 23.4 °C 3.4 °C 1015.1 hPa NE 9.3 km/h 9.3 km/h 27 % 0.0 mm 867.0 W/m2 CLR
12:55 23.8 °C 4.2 °C 1015.1 hPa NE 11.1 km/h 11.1 km/h 28 % 0.0 mm 870.0 W/m2 CLR
13:00 24.0 °C 4.3 °C 1014.8 hPa NE 5.6 km/h 5.6 km/h 28 % 0.0 mm 874.0 W/m2 CLR
13:05 23.9 °C 3.7 °C 1014.8 hPa ENE 12.9 km/h 12.9 km/h 27 % 0.0 mm 881.0 W/m2 CLR
13:10 23.9 °C 3.7 °C 1014.8 hPa NE 14.8 km/h 14.8 km/h 27 % 0.0 mm 881.0 W/m2 CLR
13:15 24.0 °C 3.8 °C 1014.8 hPa NNE 9.3 km/h 9.3 km/h 27 % 0.0 mm 884.0 W/m2 CLR
13:20 24.3 °C 4.6 °C 1014.4 hPa NNW 5.6 km/h 5.6 km/h 28 % 0.0 mm 888.0 W/m2 CLR
13:25 24.4 °C 4.2 °C 1014.4 hPa NE 14.8 km/h 14.8 km/h 27 % 0.0 mm 889.0 W/m2 CLR
13:30 24.6 °C 3.8 °C 1014.4 hPa Calm     26 % 0.0 mm 891.0 W/m2 CLR
13:35 24.8 °C 4.5 °C 1014.4 hPa Calm     27 % 0.0 mm 895.0 W/m2 CLR
13:40 24.9 °C 4.1 °C 1014.1 hPa ESE 9.3 km/h 9.3 km/h 26 % 0.0 mm 896.0 W/m2 CLR
13:45 24.8 °C 4.0 °C 1014.1 hPa NE 4.8 km/h 4.8 km/h 26 % 0.0 mm 893.0 W/m2 CLR
13:50 24.9 °C 4.1 °C 1014.1 hPa NNW 1.9 km/h   26 % 0.0 mm 895.0 W/m2 CLR
13:55 25.1 °C 3.7 °C 1013.8 hPa NE 9.7 km/h 9.7 km/h 25 % 0.0 mm 896.0 W/m2 CLR
14:00 25.2 °C 4.3 °C 1013.8 hPa NE 8.0 km/h 8.0 km/h 26 % 0.0 mm 893.0 W/m2 CLR
14:05 25.4 °C 5.0 °C 1013.8 hPa Calm     27 % 0.0 mm 891.0 W/m2 CLR
14:10 25.7 °C 5.3 °C 1013.4 hPa NNE 8.0 km/h 8.0 km/h 27 % 0.0 mm 893.0 W/m2 CLR
14:15 25.6 °C 5.2 °C 1013.4 hPa ENE 9.3 km/h 9.3 km/h 27 % 0.0 mm 891.0 W/m2 CLR
14:25 26.3 °C 6.3 °C 1013.4 hPa ENE 16.7 km/h 16.7 km/h 28 % 0.0 mm 884.0 W/m2 CLR
14:30 26.3 °C 6.3 °C 1013.4 hPa ENE 3.7 km/h 3.7 km/h 28 % 0.0 mm 881.0 W/m2 CLR
14:35 26.5 °C 6.5 °C 1013.1 hPa ENE 4.8 km/h 4.8 km/h 28 % 0.0 mm 882.0 W/m2 CLR
14:40 26.7 °C 6.7 °C 1013.1 hPa NE 14.8 km/h 14.8 km/h 28 % 0.0 mm 877.0 W/m2 CLR
14:45 26.8 °C 6.8 °C 1013.1 hPa ESE 9.3 km/h 9.3 km/h 28 % 0.0 mm 875.0 W/m2 CLR
14:50 26.4 °C 5.9 °C 1013.1 hPa NE 18.5 km/h 18.5 km/h 27 % 0.0 mm 870.0 W/m2 CLR
14:55 26.2 °C 6.3 °C 1012.8 hPa NNE 11.1 km/h 11.1 km/h 28 % 0.0 mm 870.0 W/m2 CLR
15:00 26.5 °C 6.5 °C 1012.8 hPa ENE 18.5 km/h 18.5 km/h 28 % 0.0 mm 860.0 W/m2 CLR
15:05 26.5 °C 6.5 °C 1012.8 hPa NE 9.7 km/h 9.7 km/h 28 % 0.0 mm 856.0 W/m2 CLR
15:10 26.7 °C 6.7 °C 1012.8 hPa ENE 14.8 km/h 14.8 km/h 28 % 0.0 mm 838.0 W/m2 CLR
15:15 26.6 °C 6.1 °C 1012.8 hPa East 16.7 km/h 16.7 km/h 27 % 0.0 mm 842.0 W/m2 CLR
15:20 26.4 °C 5.9 °C 1012.8 hPa ENE 11.3 km/h 11.3 km/h 27 % 0.0 mm 840.0 W/m2 CLR
15:25 26.4 °C 6.4 °C 1012.4 hPa ENE 18.5 km/h 18.5 km/h 28 % 0.0 mm 842.0 W/m2 CLR
15:30 26.7 °C 6.7 °C 1012.4 hPa NE 14.8 km/h 14.8 km/h 28 % 0.0 mm 840.0 W/m2 CLR
15:35 26.8 °C 6.3 °C 1012.4 hPa ENE 16.7 km/h 16.7 km/h 27 % 0.0 mm 817.0 W/m2 CLR
15:36 26.8 °C 6.3 °C 1012.4 hPa NE 18.5 km/h 18.5 km/h 27 % 0.0 mm 814.0 W/m2 CLR
15:41 27.1 °C 7.0 °C 1012.4 hPa NNE 18.5 km/h 18.5 km/h 28 % 0.0 mm 810.0 W/m2 CLR
15:46 27.1 °C 3.5 °C 1012.4 hPa East 20.4 km/h 20.4 km/h 22 % 0.0 mm 807.0 W/m2 CLR
15:51 27.0 °C 4.1 °C 1012.1 hPa ESE 22.2 km/h 22.2 km/h 23 % 0.0 mm 800.0 W/m2 CLR
15:56 27.1 °C 4.8 °C 1012.1 hPa ESE 22.2 km/h 22.2 km/h 24 % 0.0 mm 788.0 W/m2 CLR
16:01 27.3 °C 3.7 °C 1012.1 hPa SE 25.9 km/h 25.9 km/h 22 % 0.0 mm 786.0 W/m2 CLR
16:06 27.3 °C 3.7 °C 1012.1 hPa ESE 31.5 km/h 31.5 km/h 22 % 0.0 mm 777.0 W/m2 CLR
16:11 26.8 °C 4.6 °C 1012.1 hPa ESE 27.4 km/h 27.4 km/h 24 % 0.0 mm 770.0 W/m2 CLR
16:16 26.9 °C 4.6 °C 1012.1 hPa SSE 18.5 km/h 18.5 km/h 24 % 0.0 mm 766.0 W/m2 CLR
16:21 26.8 °C 3.3 °C 1012.1 hPa SE 27.8 km/h 27.8 km/h 22 % 0.0 mm 744.0 W/m2 CLR
16:26 26.6 °C 3.8 °C 1011.7 hPa SE 24.1 km/h 24.1 km/h 23 % 0.0 mm 687.0 W/m2 CLR
16:31 26.6 °C 4.4 °C 1011.7 hPa ESE 25.9 km/h 25.9 km/h 24 % 0.0 mm 714.0 W/m2 CLR
16:36 26.5 °C 3.1 °C 1011.7 hPa SE 31.5 km/h 31.5 km/h 22 % 0.0 mm 738.0 W/m2 CLR
16:41 26.4 °C 4.8 °C 1011.7 hPa ESE 25.9 km/h 25.9 km/h 25 % 0.0 mm 717.0 W/m2 CLR
16:46 26.4 °C 4.8 °C 1011.7 hPa ESE 25.9 km/h 25.9 km/h 25 % 0.0 mm 712.0 W/m2 CLR
16:51 26.3 °C 4.1 °C 1011.7 hPa SE 29.6 km/h 29.6 km/h 24 % 0.0 mm 694.0 W/m2 CLR
16:57 26.0 °C 4.4 °C 1011.7 hPa SE 31.5 km/h 31.5 km/h 25 % 0.0 mm 689.0 W/m2 CLR
17:01 25.7 °C 4.2 °C 1011.7 hPa SE 31.5 km/h 31.5 km/h 25 % 0.0 mm 687.0 W/m2 CLR
17:06 25.7 °C 4.7 °C 1011.7 hPa ESE 22.2 km/h 22.8 km/h 26 % 0.0 mm 677.0 W/m2 CLR
17:11 25.6 °C 4.1 °C 1011.7 hPa SE 24.1 km/h 24.1 km/h 25 % 0.0 mm 663.0 W/m2 CLR
17:16 25.1 °C 4.2 °C 1011.4 hPa SE 31.5 km/h 31.5 km/h 26 % 0.0 mm 649.0 W/m2 CLR
17:17 25.1 °C 4.2 °C 1011.4 hPa SSE 29.6 km/h 29.6 km/h 26 % 0.0 mm 643.0 W/m2 CLR
17:22 25.1 °C 4.2 °C 1011.4 hPa SE 27.8 km/h 27.8 km/h 26 % 0.0 mm 635.0 W/m2 CLR
17:27 25.1 °C 3.7 °C 1011.4 hPa SSE 31.5 km/h 31.5 km/h 25 % 0.0 mm 617.0 W/m2 CLR
17:32 25.2 °C 3.8 °C 1011.4 hPa SE 27.8 km/h 27.8 km/h 25 % 0.0 mm 605.0 W/m2 CLR
17:37 25.2 °C 4.3 °C 1011.7 hPa ENE 24.1 km/h 24.1 km/h 26 % 0.0 mm 619.0 W/m2 CLR
17:42 25.2 °C 3.8 °C 1011.7 hPa ENE 22.2 km/h 22.2 km/h 25 % 0.0 mm 610.0 W/m2 CLR
17:47 25.1 °C 3.7 °C 1011.7 hPa ENE 27.8 km/h 27.8 km/h 25 % 0.0 mm 598.0 W/m2 CLR
17:52 24.9 °C 3.5 °C 1011.7 hPa ENE 27.8 km/h 27.8 km/h 25 % 0.0 mm 566.0 W/m2 CLR
17:57 24.8 °C 3.9 °C 1011.7 hPa ENE 24.1 km/h 24.1 km/h 26 % 0.0 mm 520.0 W/m2 CLR
18:02 24.8 °C 3.9 °C 1011.7 hPa ENE 20.9 km/h 20.9 km/h 26 % 0.0 mm 475.0 W/m2 CLR
18:08 24.6 °C 3.8 °C 1011.4 hPa ENE 22.2 km/h 22.2 km/h 26 % 0.0 mm 454.0 W/m2 CLR
18:13 24.6 °C 3.8 °C 1011.4 hPa ENE 24.1 km/h 24.1 km/h 26 % 0.0 mm 427.0 W/m2 CLR
18:18 24.6 °C 4.3 °C 1011.7 hPa ENE 18.5 km/h 18.5 km/h 27 % 0.0 mm 413.0 W/m2 CLR
18:23 24.6 °C 3.8 °C 1011.7 hPa ENE 24.1 km/h 24.1 km/h 26 % 0.0 mm 381.0 W/m2 CLR
18:27 24.4 °C 4.2 °C 1011.7 hPa ENE 19.3 km/h 19.3 km/h 27 % 0.0 mm 378.0 W/m2 CLR
18:33 24.4 °C 4.2 °C 1011.7 hPa ENE 24.1 km/h 24.1 km/h 27 % 0.0 mm 362.0 W/m2 CLR
18:38 24.2 °C 4.0 °C 1011.7 hPa ENE 20.4 km/h 20.4 km/h 27 % 0.0 mm 350.0 W/m2 CLR
18:43 24.2 °C 4.6 °C 1011.7 hPa ENE 18.5 km/h 18.5 km/h 28 % 0.0 mm 334.0 W/m2 CLR
18:48 24.2 °C 4.5 °C 1011.7 hPa ENE 17.7 km/h 17.7 km/h 28 % 0.0 mm 316.0 W/m2 CLR
18:53 24.1 °C 4.9 °C 1011.7 hPa ENE 14.5 km/h 14.5 km/h 29 % 0.0 mm 302.0 W/m2 CLR
18:58 23.9 °C 4.8 °C 1011.7 hPa ENE 20.4 km/h 20.4 km/h 29 % 0.0 mm 285.0 W/m2 CLR
19:03 23.8 °C 4.7 °C 1011.7 hPa ENE 14.8 km/h 14.8 km/h 29 % 0.0 mm 274.0 W/m2 CLR
19:08 23.8 °C 4.7 °C 1011.7 hPa ENE 18.5 km/h 18.5 km/h 29 % 0.0 mm 262.0 W/m2 CLR
19:13 23.8 °C 4.7 °C 1011.7 hPa ENE 16.7 km/h 16.7 km/h 29 % 0.0 mm 241.0 W/m2 CLR
19:18 23.6 °C 5.0 °C 1011.7 hPa ENE 22.2 km/h 22.2 km/h 30 % 0.0 mm 216.0 W/m2 CLR
19:23 23.3 °C 5.2 °C 1011.7 hPa ENE 18.5 km/h 18.5 km/h 31 % 0.0 mm 197.0 W/m2 CLR
19:28 23.2 °C 4.6 °C 1011.7 hPa ENE 18.5 km/h 18.5 km/h 30 % 0.0 mm 176.0 W/m2 CLR
19:33 22.9 °C 4.9 °C 1011.7 hPa ENE 22.2 km/h 22.2 km/h 31 % 0.0 mm 158.0 W/m2 CLR
19:38 22.8 °C 4.8 °C 1011.7 hPa ENE 18.5 km/h 18.5 km/h 31 % 0.0 mm 141.0 W/m2 CLR
19:43 22.7 °C 4.7 °C 1011.7 hPa ENE 18.5 km/h 18.5 km/h 31 % 0.0 mm 121.0 W/m2 CLR
19:48 22.7 °C 4.7 °C 1011.7 hPa ENE 16.7 km/h 16.7 km/h 31 % 0.0 mm 105.0 W/m2 CLR
19:53 22.7 °C 4.2 °C 1011.4 hPa ENE 16.7 km/h 16.7 km/h 30 % 0.0 mm 91.0 W/m2 CLR
19:58 22.6 °C 3.6 °C 1011.7 hPa ENE 14.8 km/h 14.8 km/h 29 % 0.0 mm 37.0 W/m2 BKN
20:03 22.4 °C 4.0 °C 1011.7 hPa ENE 14.5 km/h 14.5 km/h 30 % 0.0 mm 62.0 W/m2 SCT
20:08 22.4 °C 3.0 °C 1011.7 hPa ENE 18.5 km/h 18.5 km/h 28 % 0.0 mm 47.0 W/m2 SCT
20:13 22.4 °C 1.4 °C 1011.7 hPa ENE 14.8 km/h 14.8 km/h 25 % 0.0 mm 40.0 W/m2 BKN
20:18 22.3 °C 2.4 °C 1011.7 hPa ENE 5.6 km/h 5.6 km/h 27 % 0.0 mm 30.0 W/m2 BKN
20:23 22.1 °C 2.7 °C 1011.7 hPa ENE 7.4 km/h 7.4 km/h 28 % 0.0 mm 21.0 W/m2 BKN
20:28 21.8 °C 3.4 °C 1011.7 hPa ENE 11.3 km/h 11.3 km/h 30 % 0.0 mm 19.0 W/m2 BKN
20:33 21.6 °C 2.8 °C 1011.7 hPa ENE 5.6 km/h 5.6 km/h 29 % 0.0 mm 16.0 W/m2 BKN
20:38 21.6 °C 1.3 °C 1011.7 hPa ENE 6.4 km/h 6.4 km/h 26 % 0.0 mm 12.0 W/m2 BKN
20:43 21.6 °C 1.2 °C 1011.7 hPa SSE 13.0 km/h 13.0 km/h 26 % 0.0 mm 7.0 W/m2 BKN
20:48 21.4 °C 1.1 °C 1011.7 hPa SE 5.6 km/h 5.6 km/h 26 % 0.0 mm 0.0 W/m2 OVC
20:53 21.3 °C 1.5 °C 1012.1 hPa SE 5.6 km/h 5.6 km/h 27 % 0.0 mm 0.0 W/m2 OVC
20:58 21.1 °C 1.4 °C 1012.1 hPa SSE 11.1 km/h 11.1 km/h 27 % 0.0 mm 0.0 W/m2 OVC
21:03 20.9 °C 1.2 °C 1012.1 hPa SSE 11.1 km/h 11.1 km/h 27 % 0.0 mm 0.0 W/m2 CLR
21:08 20.7 °C 1.6 °C 1012.1 hPa SE 11.3 km/h 11.3 km/h 28 % 0.0 mm 0.0 W/m2 CLR
21:13 20.6 °C 1.4 °C 1012.1 hPa SSE 13.0 km/h 13.0 km/h 28 % 0.0 mm 0.0 W/m2 CLR
21:18 20.5 °C 1.3 °C 1012.1 hPa SE 9.7 km/h 9.7 km/h 28 % 0.0 mm 0.0 W/m2 CLR
21:23 20.3 °C 1.2 °C 1012.1 hPa SE 11.1 km/h 11.1 km/h 28 % 0.0 mm 0.0 W/m2 CLR
21:28 20.2 °C 1.1 °C 1012.1 hPa SE 13.0 km/h 13.0 km/h 28 % 0.0 mm 0.0 W/m2 CLR
21:33 20.1 °C 1.0 °C 1012.1 hPa SE 11.3 km/h 11.3 km/h 28 % 0.0 mm 0.0 W/m2 CLR
21:38 20.0 °C 0.9 °C 1012.1 hPa SSE 13.0 km/h 13.0 km/h 28 % 0.0 mm 0.0 W/m2 CLR
21:43 19.8 °C 0.8 °C 1012.1 hPa SSE 11.1 km/h 11.1 km/h 28 % 0.0 mm 0.0 W/m2 CLR
21:48 19.8 °C 0.7 °C 1012.1 hPa SE 11.1 km/h 11.1 km/h 28 % 0.0 mm 0.0 W/m2 CLR
21:53 19.7 °C 0.6 °C 1012.1 hPa Calm   0.3 km/h 28 % 0.0 mm 0.0 W/m2 CLR
21:58 19.6 °C 0.1 °C 1012.1 hPa SE 3.7 km/h 3.7 km/h 27 % 0.0 mm 0.0 W/m2 CLR
22:03 19.6 °C 0.1 °C 1012.4 hPa SSE 5.6 km/h 5.6 km/h 27 % 0.0 mm 0.0 W/m2 CLR
22:08 19.5 °C -0.6 °C 1012.1 hPa Calm     26 % 0.0 mm 0.0 W/m2 CLR
22:13 19.5 °C -0.6 °C 1012.4 hPa SE 5.6 km/h 5.6 km/h 26 % 0.0 mm 0.0 W/m2 CLR
22:18 19.4 °C -0.6 °C 1012.4 hPa East 5.6 km/h 5.6 km/h 26 % 0.0 mm 0.0 W/m2 CLR
22:23 19.2 °C 0.3 °C 1012.1 hPa Calm     28 % 0.0 mm 0.0 W/m2 CLR
22:28 18.9 °C 0.0 °C 1012.4 hPa Calm     28 % 0.0 mm 0.0 W/m2 CLR
22:33 18.8 °C -0.1 °C 1012.4 hPa Calm     28 % 0.0 mm 0.0 W/m2 CLR
22:38 18.7 °C -0.2 °C 1012.4 hPa ENE 3.7 km/h   28 % 0.0 mm 0.0 W/m2 CLR
22:43 18.6 °C 0.6 °C 1012.4 hPa Calm     30 % 0.0 mm 0.0 W/m2 CLR
22:48 18.3 °C 0.4 °C 1012.4 hPa Calm     30 % 0.0 mm 0.0 W/m2 CLR
22:53 17.9 °C 3.1 °C 1012.4 hPa Calm     37 % 0.0 mm 0.0 W/m2 CLR
22:59 17.6 °C 2.7 °C 1012.4 hPa Calm     37 % 0.0 mm 0.0 W/m2 CLR
23:04 17.6 °C 3.4 °C 1012.8 hPa Calm     39 % 0.0 mm 0.0 W/m2 CLR
23:09 17.4 °C 3.7 °C 1012.8 hPa Calm     40 % 0.0 mm 0.0 W/m2 CLR
23:14 17.3 °C 4.2 °C 1012.8 hPa Calm     42 % 0.0 mm 0.0 W/m2 CLR
23:19 16.9 °C 4.9 °C 1012.8 hPa Calm     45 % 0.0 mm 0.0 W/m2 CLR
23:24 16.5 °C 5.7 °C 1012.8 hPa Calm     49 % 0.0 mm 0.0 W/m2 CLR
23:39 16.1 °C 5.4 °C 1012.4 hPa Calm     49 % 0.0 mm 0.0 W/m2 CLR
23:44 16.1 °C 5.7 °C 1012.4 hPa Calm     50 % 0.0 mm 0.0 W/m2 CLR
23:49 16.1 °C 5.7 °C 1012.4 hPa Calm     50 % 0.0 mm 0.0 W/m2 CLR
23:54 16.1 °C 5.7 °C 1012.4 hPa NE 3.7 km/h 3.7 km/h 50 % 0.0 mm 0.0 W/m2 CLR
23:59 16.1 °C 5.9 °C 1012.4 hPa ENE 5.6 km/h 5.6 km/h 51 % 0.0 mm 0.0 W/m2 CLR
Lo Temps de Massalio
Compliments of Weather Underground - 1.25 mb